Weather History for Pensacola, FL

Change the Weather History Date:

Sunday, September 22, 2013

  Actual Average Record
Temperature  
Mean Temperature 74 °F 77 °F  
Max Temperature 78 °F 85 °F 96 °F (1990)
Min Temperature 70 °F 69 °F 49 °F (1983)
Cooling Degree Days 9 12  
Month to date cooling degree days 375 316  
Year to date cooling degree days 2357 2283  
Growing Degree Days 23 (Base 50)    
Moisture  
Dew Point 70 °F    
Average Humidity 90    
Maximum Humidity 97    
Minimum Humidity 82    
Precipitation  
Precipitation 0.22 in 0.21 in 3.52 in (1975)
Month to date precipitation 2.62 4.42  
Year to date precipitation 59.07 49.19  
Sea Level Pressure  
Sea Level Pressure 29.77 in    
Wind  
Wind Speed 7 mph (NNE)    
Max Wind Speed 12 mph    
Max Gust Speed 16 mph    
Visibility 8 miles    
Events Rain    
T = Trace of Precipitation, MM = Missing Value Source: NWS Daily Summary

Daily Weather History Graph

Daily Weather History Graph

Search for Another Location

Airport:

Trip Planner

Search our weather history database for the weather conditions in past years. The results will help you decide how hot, cold, wet, or windy it might be!

Date:

Astronomy

Sep. 22, 2013 Rise Set
Actual Time 6:37 AM CDT 6:45 PM CDT
Civil Twilight 6:13 AM CDT 7:08 PM CDT
Nautical Twilight 5:45 AM CDT 7:36 PM CDT
Astronomical Twilight 5:16 AM CDT 8:05 PM CDT
Moon 8:52 PM CDT (9/22) 9:40 AM CDT (9/22)
Length of Visible Light 12h 55m
Length of Day
12h 07m
Waning Gibbous, 88% of the Moon is Illuminated
Sep 22
Waning Gibbous
Sep 26
Last Quarter
Oct 4
New
Oct 11
First Quarter
Oct 18
Full

Hourly Weather History & Observations

Time (CDT) Temp. Dew Point Humidity Pressure Visibility Wind Dir Wind Speed Gust Speed Precip Events Conditions
12:53 AM 77.0 °F 73.9 °F 90% 29.76 in 10.0 mi WSW 4.6 mph - 0.01 in Rain Light Rain
1:40 AM 75.2 °F 71.6 °F 89% 29.75 in 10.0 mi NNW 8.1 mph - 0.00 in Rain Light Rain
1:50 AM 75.2 °F 71.6 °F 89% 29.75 in 10.0 mi NNW 6.9 mph - 0.00 in Rain Light Rain
1:53 AM 75.0 °F 72.0 °F 90% 29.76 in 10.0 mi NW 8.1 mph - 0.00 in Rain Light Rain
2:46 AM 71.6 °F 69.8 °F 94% 29.74 in 5.0 mi North 10.4 mph - 0.02 in Rain Light Rain
2:53 AM 72.0 °F 70.0 °F 93% 29.75 in 9.0 mi North 8.1 mph - 0.03 in Rain Light Rain
3:24 AM 71.6 °F 69.8 °F 94% 29.74 in 10.0 mi North 9.2 mph - 0.05 in Rain Light Rain
3:53 AM 71.1 °F 69.1 °F 93% 29.74 in 10.0 mi North 8.1 mph - 0.06 in Rain Light Rain
4:19 AM 71.6 °F 69.8 °F 94% 29.74 in 10.0 mi NNE 5.8 mph - 0.01 in Rain Light Rain
4:37 AM 71.6 °F 69.8 °F 94% 29.74 in 10.0 mi NNE 6.9 mph - 0.01 in Rain Light Rain
4:53 AM 71.1 °F 68.0 °F 90% 29.75 in 10.0 mi NNE 6.9 mph - 0.01 in Rain Light Rain
5:31 AM 71.6 °F 68.0 °F 88% 29.74 in 10.0 mi NNE 8.1 mph - 0.00 in Rain Light Rain
5:48 AM 69.8 °F 68.0 °F 94% 29.74 in 10.0 mi NNE 5.8 mph - 0.00 in   Partly Cloudy
5:53 AM 70.0 °F 68.0 °F 93% 29.75 in 10.0 mi NNE 5.8 mph - 0.00 in   Partly Cloudy
6:02 AM 69.8 °F 68.0 °F 94% 29.75 in 10.0 mi Variable 4.6 mph - N/A   Partly Cloudy
6:21 AM 69.8 °F 68.0 °F 94% 29.75 in 10.0 mi NNE 8.1 mph - N/A   Mostly Cloudy
6:53 AM 70.0 °F 68.0 °F 93% 29.76 in 10.0 mi NNE 6.9 mph - N/A   Overcast
7:53 AM 70.0 °F 66.9 °F 90% 29.78 in 10.0 mi NNE 6.9 mph - N/A   Overcast
8:53 AM 72.0 °F 68.0 °F 87% 29.78 in 10.0 mi NE 9.2 mph - N/A   Mostly Cloudy
9:53 AM 73.0 °F 68.0 °F 84% 29.80 in 10.0 mi NNE 6.9 mph - N/A   Overcast
10:53 AM 73.9 °F 69.1 °F 85% 29.81 in 10.0 mi Variable 5.8 mph - N/A   Overcast
11:35 AM 75.2 °F 69.8 °F 83% 29.81 in 10.0 mi NNE 6.9 mph - N/A   Overcast
11:47 AM 73.4 °F 69.8 °F 88% 29.81 in 1.8 mi NNE 6.9 mph - 0.01 in Rain Rain
11:53 AM 73.9 °F 70.0 °F 87% 29.81 in 1.5 mi NNE 4.6 mph - 0.03 in Rain Rain
12:13 PM 73.4 °F 71.6 °F 94% 29.81 in 2.5 mi NNE 5.8 mph - 0.03 in Rain Light Rain
12:17 PM 73.4 °F 71.6 °F 94% 29.81 in 1.5 mi NNE 5.8 mph - 0.04 in Rain Heavy Rain
12:26 PM 73.4 °F 71.6 °F 94% 29.81 in 2.0 mi Calm Calm - 0.07 in Rain Light Rain
12:28 PM 73.4 °F 71.6 °F 94% 29.80 in 3.0 mi NNE 3.5 mph - 0.07 in Rain Light Rain
12:53 PM 73.9 °F 71.1 °F 91% 29.80 in 6.0 mi NE 6.9 mph - 0.07 in   Overcast
1:15 PM 73.4 °F 71.6 °F 94% 29.79 in 2.0 mi NNE 6.9 mph - 0.00 in Rain Light Rain
1:49 PM 73.4 °F 71.6 °F 94% 29.78 in 1.8 mi NNE 6.9 mph - 0.01 in Rain Light Rain
1:53 PM 73.9 °F 71.1 °F 91% 29.78 in 2.0 mi North 6.9 mph - 0.02 in Rain Light Rain
2:02 PM 75.2 °F 71.6 °F 89% 29.78 in 3.0 mi North 6.9 mph - 0.00 in Rain Light Rain
2:53 PM 75.9 °F 72.0 °F 87% 29.77 in 10.0 mi North 6.9 mph - 0.00 in   Overcast
3:53 PM 77.0 °F 72.0 °F 84% 29.75 in 10.0 mi NNE 8.1 mph - N/A   Overcast
4:50 PM 77.0 °F 71.6 °F 83% 29.75 in 10.0 mi NNE 6.9 mph - N/A   Overcast
4:53 PM 77.0 °F 72.0 °F 84% 29.75 in 10.0 mi NNE 5.8 mph - N/A   Overcast
5:53 PM 77.0 °F 72.0 °F 84% 29.77 in 10.0 mi NNE 5.8 mph - N/A   Overcast
6:53 PM 75.9 °F 70.0 °F 82% 29.78 in 10.0 mi NNE 8.1 mph - N/A   Overcast
7:00 PM 75.2 °F 69.8 °F 83% 29.77 in 10.0 mi NNE 8.1 mph - N/A   Overcast
7:35 PM 75.2 °F 69.8 °F 83% 29.77 in 10.0 mi NNE 6.9 mph - N/A   Mostly Cloudy
7:42 PM 75.2 °F 69.8 °F 83% 29.77 in 10.0 mi NNE 5.8 mph - N/A   Mostly Cloudy
7:53 PM 75.0 °F 70.0 °F 84% 29.78 in 10.0 mi NNE 6.9 mph - N/A   Partly Cloudy
8:53 PM 75.0 °F 71.1 °F 87% 29.80 in 10.0 mi NNE 3.5 mph - N/A   Mostly Cloudy
9:53 PM 75.0 °F 70.0 °F 84% 29.80 in 10.0 mi NE 4.6 mph - N/A   Partly Cloudy
10:53 PM 73.9 °F 70.0 °F 87% 29.80 in 10.0 mi NNE 4.6 mph - N/A   Clear
11:53 PM 73.9 °F 70.0 °F 87% 29.79 in 10.0 mi NNE 6.9 mph - N/A   Clear